Etusivu
METAR-TAF:

METAR-TAF

Lentoasemat :

Isedor Iverson Airport

McGregor, Minnesota, Yhdysvallat

Leveyspiiri: 46-37-07N, Pituuspiiri: 093-18-35W, korkeus merenpinnasta: 374 m

Tämänhetkinen sää

Tämä raportti tehtiin 26 minuuttia sitten, kello 08.15 UTC
Tuuli 8 kn etelästä/lounaasta
Lämpötila -7°C
Kosteus 86%
Ilmanpaine 1010 hPa
Näkyvyys: 16.1 km
Pilvistä 1700 ft:n korkeudessa

METAR: KHZX 220815Z AUTO 20008KT 10SM OVC017 M07/M09 A2982 RMK AO2

Aika: 02:41 (08:41 UTC)


TAF: puuttuu

Säähavainnot ja -ennusteet yli 4000 lentoasemalta (METAR- ja TAF-raportit).

Käytössä olevat sääasemat on merkitty karttaan keltaisilla ja punaisilla pisteillä.

Aseta hiiri pisteen päälle nähdäksesi sääaseman nimen.

Klikkaa sitten nähdäksesi säähavainnot ja -ennusteet.

Kartan vaihtaminen: klikkaa mustalla rastilla varustettuja vihreitä pisteitä, niin voit zoomata sisään; viivalla varustettua vihreää pistettä, niin voit zoomata ulos tai vihreitä nuolia, niin pääset viereisille kartoille.


METAR-TAF: